NOAA 16 DEB

Satellite information

Favourite Embed

Satellite Type and Status

DEBRISIN ORBIT

Key statistics

Satellite NOAA 16 DEB at a glance.

Uptime

9156

Days in orbit

Revolutions

≈ 14.2

Per day

Orbit

SSO

Sun Synchronous Orbit

Inclination

98.6

Latest

Satellite identification and parameters

Extended collection of information and parameters for NOAA 16 DEB.

Object identification

Identified? True

Debris? True

Object name: NOAA 16 DEB

International designator: 2000-055D

Object number (NORAD): 41046

Object ID (CCSDS): 41046

Country: UNITED STATES OF AMERICA (US)

Current information (Y/N): Y

RCS size: SMALL

Orbital parameters

Period: 101.513 minutes

Inclination: 98.6453 deg

SMA: 7208.447 km

Apoapsis: 838.717 km

Periapsis: 821.908 km

RAAN: 355.0737 deg

Eccentricy: 0.00116595

Argument of periapsis: 304.1181 deg

Mean anomaly: 55.8888 deg

Mean motion: 14.18535364 rev/day

Mean motion (dot): 0.00001097 rev/day2

B* drag term: 0.00055085693 1/REarth

Two-line elements (TLE)

Creation date: Oct. 16, 2025, 2:37 a.m.

Reference frame: TEME

Reference center: EARTH

Epoch: Oct. 15, 2025, 9:16 p.m. UTC

TLE line 0: 0 NOAA 16 DEB

TLE line 1: 1 41046U 00055D 25288.88668114 .00001097 00000-0 55086-3 0 9996

TLE line 2: 2 41046 98.6453 355.0737 0011659 304.1181 55.8888 14.18535364510842

Live tracking on map

Real-time ground track for satellite NOAA 16 DEB.

In-orbit conjunctions

A list of the most updated potential collisions computed for object NOAA 16 DEB.

Target Orbit TCA Probability of collision Miss distance Type
FENGYUN 1C DEB SSO 2025-03-23 15:26:20 0.0001186217 92.0 (m) DEBRIS
FENGYUN 1C DEB SSO 2025-03-22 04:28:45 0.0001367779 273.0 (m) DEBRIS
CZ-6A DEB LEO 2024-10-24 22:46:22 0.000120261 880.0 (m) DEBRIS

Associated space launch

The NOAA K, L and M POES satellites begin the fifth generation of improved environmental monitoring in support of NOAA missions. The instrument payload has significant improvements and additions/deletions. The instrument changes have effected the spacecraft subsystems and data formats.

NOAA 16 DEB was lifted into orbit during the mission ‘Titan II SLV | NOAA 16’, on board a Titan II SLV space rocket.

The launch took place on Sept. 21, 2000, 10:22 a.m. from Space Launch Complex 4W.

For more information about the launch, click the button.

Launch to space Titan II SLV | NOAA 16
Titan II SLV | NOAA 16

Agency: N/A

Status: Launch Successful

Launch date: Sept. 21, 2000, 10:22 a.m. UTC

Rocket: Titan II SLV

Launch pad: Space Launch Complex 4W

Location: Vandenberg SFB, CA, USA

...

Latest news about this satellite

There are no fresh news available about this satellite. Check back as we update our databases every day.


Newsletter sign-up

Weekly statistics, charts and insights to help you stay on top of the space industry.